Date String (YYYY-MM-DD hh:mm:ss) UTC,Instrument flags,absolute air pressure of the measurement (hPa),sample flow rate (lpm),inlet stack bypass flow (lpm),air temperature of the measurement (°C),ambient temperature measured by the external sensor (°C),aerosol sample conditioner tube jacket temperature (°C),OPC LED temperature (°C),internal box temperature (°C),relative humidity of the measurement (%),span deviation,mass concentration of particles derived from Lorenz-Mie calculation of OPC scattering (μg/m³),mass concentration of particles derived from Lorenz-Mie calculation of OPC scattering (μg/m³),mass concentration of particles derived from Lorenz-Mie calculation of OPC scattering (μg/m³)
DateTimeUTC,F1_M11,P_M11,Q1_M11,Q2_M11,T1_M11,T2_M11,T3_M11,T4_M11,T5_M11,U1_M11,ZSPAN_M11,X0_M11,X2_M11,X1_M11
2023-07-14 01:00:00,SystemResetWarning,0828.9,5.01,000.00,028.6,026.6,000.0,036.9,030.3,27.9,0000.0,0015.83,0004.56,0003.71
2023-07-14 01:01:00,SystemResetWarning,0829.0,5.00,000.00,028.7,027.0,000.0,036.9,030.4,28.3,0000.0,0015.71,0004.61,0003.72
2023-07-14 01:02:00,SystemResetWarning,0829.0,5.00,000.00,028.7,027.3,000.0,036.9,030.5,27.5,0000.0,0015.77,0004.65,0003.73
2023-07-14 01:03:00,SystemResetWarning,0828.9,5.00,000.00,028.8,027.5,000.0,037.0,030.6,27.8,0000.0,0014.78,0004.68,0003.73
2023-07-14 01:04:00,SystemResetWarning,0829.0,4.98,000.00,028.8,026.2,000.0,036.9,030.4,27.9,0000.0,0014.53,0004.65,0003.74
2023-07-14 01:05:00,SystemResetWarning,0829.0,5.01,000.00,028.7,024.8,000.0,036.8,030.2,27.8,0000.0,0015.44,0004.62,0003.75
2023-07-14 01:06:00,SystemResetWarning,0828.9,5.01,000.00,028.7,024.8,000.0,036.8,030.1,27.9,0000.0,0014.88,0004.61,0003.76
2023-07-14 01:07:00,SystemResetWarning,0829.0,5.00,000.00,028.6,025.2,000.0,036.8,030.0,27.7,0000.0,0014.37,0004.58,0003.76
2023-07-14 01:08:00,SystemResetWarning,0829.0,5.00,000.00,028.6,025.6,000.0,036.9,030.1,27.6,0000.0,0013.47,0004.56,0003.76
2023-07-14 01:09:00,SystemResetWarning,0829.0,5.00,000.00,028.6,026.1,000.0,036.9,030.2,27.7,0000.0,0013.22,0004.52,0003.76
2023-07-14 01:10:00,SystemResetWarning,0828.9,5.00,000.00,028.6,026.6,000.0,036.9,030.3,27.9,0000.0,0013.13,0004.52,0003.76
2023-07-14 01:11:00,SystemResetWarning,0828.9,5.00,000.00,028.7,027.0,000.0,036.9,030.4,27.4,0000.0,0012.43,0004.51,0003.76
2023-07-14 01:12:00,SystemResetWarning,0828.9,5.00,000.00,028.7,027.3,000.0,037.0,030.5,27.9,0000.0,0012.89,0004.50,0003.76
2023-07-14 01:13:00,SystemResetWarning,0828.9,4.99,000.00,028.8,027.1,000.0,037.0,030.5,27.9,0000.0,0013.46,0004.48,0003.76
2023-07-14 01:14:00,SystemResetWarning,0828.8,4.99,000.00,028.8,025.5,000.0,036.9,030.3,28.5,0000.0,0013.13,0004.44,0003.76
2023-07-14 01:15:00,SystemResetWarning,0828.8,5.01,000.00,028.7,024.6,000.0,036.8,030.1,28.4,0000.0,0012.57,0004.44,0003.76
2023-07-14 01:16:00,SystemResetWarning,0828.8,5.01,000.00,028.6,024.9,000.0,036.8,030.0,28.3,0000.0,0012.09,0004.44,0003.76
2023-07-14 01:17:00,SystemResetWarning,0828.8,4.99,000.00,028.6,025.3,000.0,036.8,029.9,27.9,0000.0,0012.63,0004.45,0003.75
2023-07-14 01:18:00,SystemResetWarning,0828.8,4.99,000.00,028.6,025.8,000.0,036.9,030.0,28.5,0000.0,0013.70,0004.49,0003.75
2023-07-14 01:19:00,SystemResetWarning,0828.9,5.00,000.00,028.6,026.3,000.0,036.9,030.2,29.1,0000.0,0014.11,0004.52,0003.76
2023-07-14 01:20:00,SystemResetWarning,0828.9,5.02,000.00,028.6,026.7,000.0,036.9,030.3,30.1,0000.0,0014.45,0004.59,0003.77
2023-07-14 01:21:00,SystemResetWarning,0829.0,4.99,000.00,028.7,027.1,000.0,037.0,030.4,30.3,0000.0,0014.86,0004.58,0003.78
2023-07-14 01:22:00,SystemResetWarning,0829.0,4.99,000.00,028.7,027.4,000.0,037.0,030.5,29.1,0000.0,0015.04,0004.57,0003.78
2023-07-14 01:23:00,SystemResetWarning,0829.0,5.00,000.00,028.8,027.3,000.0,037.0,030.5,29.3,0000.0,0015.51,0004.60,0003.79
2023-07-14 01:24:00,SystemResetWarning,0829.0,5.00,000.00,028.8,025.7,000.0,036.9,030.3,29.1,0000.0,0015.63,0004.61,0003.80
2023-07-14 01:25:00,SystemResetWarning,0829.0,5.00,000.00,028.7,024.7,000.0,036.8,030.1,28.8,0000.0,0015.72,0004.64,0003.80
2023-07-14 01:26:00,SystemResetWarning,0829.0,5.01,000.00,028.6,024.9,000.0,036.8,030.0,29.4,0000.0,0015.62,0004.68,0003.81
2023-07-14 01:27:00,SystemResetWarning,0829.0,5.01,000.00,028.6,025.2,000.0,036.8,030.0,29.7,0000.0,0015.30,0004.71,0003.82
2023-07-14 01:28:00,SystemResetWarning,0828.9,5.00,000.00,028.6,025.7,000.0,036.9,030.0,29.9,0000.0,0014.94,0004.70,0003.83
2023-07-14 01:29:00,SystemResetWarning,0828.9,5.00,000.00,028.6,026.2,000.0,036.9,030.2,30.3,0000.0,0013.88,0004.67,0003.84
2023-07-14 01:30:00,SystemResetWarning,0829.0,5.01,000.00,028.6,026.7,000.0,036.9,030.3,30.3,0000.0,0014.03,0004.69,0003.84
2023-07-14 01:31:00,SystemResetWarning,0828.9,4.99,000.00,028.7,027.1,000.0,036.9,030.4,29.6,0000.0,0015.13,0004.67,0003.84
2023-07-14 01:32:00,SystemResetWarning,0828.9,5.00,000.00,028.7,027.4,000.0,037.0,030.5,29.7,0000.0,0015.68,0004.70,0003.84
2023-07-14 01:33:00,SystemResetWarning,0828.9,4.99,000.00,028.8,027.5,000.0,037.0,030.6,29.0,0000.0,0015.53,0004.70,0003.84
2023-07-14 01:34:00,SystemResetWarning,0828.9,4.99,000.00,028.8,026.0,000.0,036.9,030.3,28.1,0000.0,0015.12,0004.67,0003.84
2023-07-14 01:35:00,SystemResetWarning,0828.9,5.01,000.00,028.7,024.8,000.0,036.8,030.1,27.8,0000.0,0014.23,0004.69,0003.83
2023-07-14 01:36:00,SystemResetWarning,0828.9,5.01,000.00,028.6,024.8,000.0,036.8,030.0,28.1,0000.0,0014.06,0004.71,0003.84
2023-07-14 01:37:00,SystemResetWarning,0829.0,4.99,000.00,028.6,025.1,000.0,036.8,029.9,29.1,0000.0,0014.22,0004.71,0003.84
2023-07-14 01:38:00,SystemResetWarning,0829.0,5.01,000.00,028.6,025.6,000.0,036.9,030.0,30.2,0000.0,0014.08,0004.72,0003.84
2023-07-14 01:39:00,SystemResetWarning,0829.0,5.00,000.00,028.6,026.1,000.0,036.9,030.2,29.9,0000.0,0013.83,0004.75,0003.84
2023-07-14 01:40:00,SystemResetWarning,0829.0,5.00,000.00,028.6,026.6,000.0,036.9,030.3,29.1,0000.0,0013.73,0004.74,0003.83
2023-07-14 01:41:00,SystemResetWarning,0829.0,5.00,000.00,028.7,026.9,000.0,036.9,030.4,28.7,0000.0,0013.21,0004.74,0003.83
2023-07-14 01:42:00,SystemResetWarning,0829.0,4.99,000.00,028.7,027.3,000.0,037.0,030.5,28.5,0000.0,0012.24,0004.72,0003.83
2023-07-14 01:43:00,SystemResetWarning,0829.1,5.00,000.00,028.8,027.5,000.0,037.0,030.6,28.7,0000.0,0013.07,0004.70,0003.83
2023-07-14 01:44:00,SystemResetWarning,0829.1,4.99,000.00,028.8,026.2,000.0,036.9,030.4,29.0,0000.0,0013.77,0004.71,0003.83
2023-07-14 01:45:00,SystemResetWarning,0829.1,5.00,000.00,028.7,024.9,000.0,036.8,030.2,29.3,0000.0,0013.27,0004.71,0003.84
2023-07-14 01:46:00,SystemResetWarning,0829.1,5.01,000.00,028.7,024.7,000.0,036.8,030.0,31.6,0000.0,0013.65,0004.67,0003.83
2023-07-14 01:47:00,SystemResetWarning,0829.1,5.02,000.00,028.6,025.0,000.0,036.8,029.9,33.4,0000.0,0014.01,0004.62,0003.82
2023-07-14 01:48:00,SystemResetWarning,0829.1,5.01,000.00,028.6,025.5,000.0,036.9,030.0,33.6,0000.0,0014.14,0004.63,0003.81
2023-07-14 01:49:00,SystemResetWarning,0829.1,5.00,000.00,028.6,026.0,000.0,036.9,030.2,32.4,0000.0,0014.61,0004.65,0003.80
2023-07-14 01:50:00,SystemResetWarning,0829.1,5.00,000.00,028.6,026.5,000.0,036.9,030.3,31.2,0000.0,0014.87,0004.66,0003.79
2023-07-14 01:51:00,SystemResetWarning,0829.1,5.00,000.00,028.7,026.9,000.0,036.9,030.4,30.4,0000.0,0017.39,0004.69,0003.79
2023-07-14 01:52:00,SystemResetWarning,0829.2,4.99,000.00,028.7,027.2,000.0,037.0,030.5,29.9,0000.0,0017.41,0004.65,0003.78
2023-07-14 01:53:00,SystemResetWarning,0829.1,5.00,000.00,028.8,027.5,000.0,037.0,030.6,29.6,0000.0,0017.71,0004.66,0003.77
2023-07-14 01:54:00,SystemResetWarning,0829.1,4.99,000.00,028.8,027.3,000.0,037.0,030.6,29.1,0000.0,0016.73,0004.69,0003.76
2023-07-14 01:55:00,SystemResetWarning,0829.1,5.00,000.00,028.8,025.7,000.0,036.9,030.3,29.0,0000.0,0015.69,0004.68,0003.76
2023-07-14 01:56:00,SystemResetWarning,0829.1,5.00,000.00,028.7,024.7,000.0,036.8,030.1,29.2,0000.0,0016.07,0004.63,0003.75
2023-07-14 01:57:00,SystemResetWarning,0829.1,5.02,000.00,028.6,024.8,000.0,036.8,030.0,30.0,0000.0,0016.43,0004.68,0003.75
2023-07-14 01:58:00,SystemResetWarning,0829.1,4.99,000.00,028.6,025.2,000.0,036.9,030.0,29.9,0000.0,0016.63,0004.70,0003.76
2023-07-14 01:59:00,SystemResetWarning,0829.1,4.99,000.00,028.6,025.6,000.0,036.9,030.1,30.6,0000.0,0016.44,0004.71,0003.76
